{"data":{"norad_id":52587,"epoch":"2026-05-25T03:40:18.734304Z","epoch_age_seconds":65826,"freshness":"FRESH","line1":"1 52587U 22051BD  26145.15299461 -.00001005  00000+0 -45063-4 0  9991","line2":"2 52587  53.2132 135.7197 0001029  74.3135 285.7971 15.08839733223130","mean_motion":15.08839733,"eccentricity":0.0001029,"inclination_deg":53.2132,"raan_deg":135.7197,"arg_perigee_deg":74.3135,"mean_anomaly_deg":285.7971,"bstar":-4.5063e-5,"rev_number":22313,"period_min":95.437571566125,"perigee_km":539.03235510041,"apogee_km":540.45605505241,"semimajor_km":6917.8812050764,"source":"CELESTRAK","updated_at":"2026-05-25T13:38:17.195837Z"}}